• In Uzbekistan
  • List of Countries
  • For 7 days
  • Water Temperature
  • Weather Map
  • Weather Widgets
  • user-avatar
    Login

    Hourly Weather La-Plata

    Today, 18 September, Wednesday

    Time Temperature Precipitation Wind Pressure Humidity
    00:00 +11°C° 0 mm 4 mps 756 mmHg 74%
    01:00 +11°C° 0 mm 4 mps 756 mmHg 75%
    02:00 +10°C° 0 mm 4 mps 756 mmHg 75%
    03:00 +9°C° 0 mm 3 mps 756 mmHg 75%
    04:00 +9°C° 0 mm 3 mps 757 mmHg 74%
    05:00 +8°C° 0 mm 3 mps 757 mmHg 74%
    06:00 +9°C° 0 mm 3 mps 757 mmHg 70%
    07:00 +10°C° 0 mm 3 mps 757 mmHg 66%
    08:00 +11°C° 0 mm 3 mps 758 mmHg 63%
    09:00 +14°C° 0 mm 2 mps 757 mmHg 57%
    10:00 +15°C° 0 mm 2 mps 757 mmHg 51%
    11:00 +18°C° 0 mm 1 mps 757 mmHg 45%
    12:00 +18°C° 0 mm 2 mps 756 mmHg 45%
    13:00 +18°C° 0 mm 2 mps 756 mmHg 46%
    14:00 +18°C° 0 mm 3 mps 755 mmHg 46%
    15:00 +18°C° 0 mm 3 mps 754 mmHg 49%
    16:00 +17°C° 0 mm 3 mps 753 mmHg 53%
    17:00 +16°C° 0 mm 3 mps 753 mmHg 56%
    18:00 +16°C° 0 mm 3 mps 753 mmHg 63%
    19:00 +14°C° 0 mm 4 mps 753 mmHg 70%
    20:00 +13°C° 0 mm 5 mps 753 mmHg 77%
    21:00 +14°C° 0 mm 5 mps 753 mmHg 78%
    22:00 +14°C° 0 mm 5 mps 752 mmHg 79%
    23:00 +14°C° 0 mm 5 mps 752 mmHg 79%

    Tomorrow, 19 September, Thursday

    Time Temperature Precipitation Wind Pressure Humidity
    00:00 +14°C° 0 mm 6 mps 751 mmHg 79%
    01:00 +14°C° 0 mm 6 mps 751 mmHg 78%
    02:00 +14°C° 0 mm 7 mps 750 mmHg 78%
    03:00 +14°C° 0 mm 7 mps 751 mmHg 76%
    04:00 +14°C° 0 mm 7 mps 751 mmHg 74%
    05:00 +14°C° 0 mm 7 mps 751 mmHg 72%
    06:00 +14°C° 0 mm 7 mps 752 mmHg 71%
    07:00 +14°C° 0 mm 6 mps 753 mmHg 70%
    08:00 +15°C° 0 mm 6 mps 753 mmHg 68%
    09:00 +14°C° 0 mm 6 mps 754 mmHg 66%
    10:00 +14°C° 0 mm 6 mps 754 mmHg 64%
    11:00 +13°C° 0 mm 5 mps 755 mmHg 62%
    12:00 +14°C° 0 mm 6 mps 755 mmHg 55%
    13:00 +15°C° 0 mm 6 mps 755 mmHg 49%
    14:00 +15°C° 0 mm 7 mps 756 mmHg 42%
    15:00 +14°C° 0 mm 6 mps 756 mmHg 45%
    16:00 +13°C° 0 mm 5 mps 757 mmHg 48%
    17:00 +13°C° 0 mm 4 mps 757 mmHg 52%
    18:00 +11°C° 0 mm 4 mps 758 mmHg 50%
    19:00 +10°C° 0 mm 3 mps 759 mmHg 48%
    20:00 +9°C° 0 mm 2 mps 760 mmHg 46%
    21:00 +9°C° 0 mm 2 mps 760 mmHg 46%
    22:00 +8°C° 0 mm 2 mps 761 mmHg 46%
    23:00 +8°C° 0 mm 2 mps 761 mmHg 46%

    Day after tomorrow, 20 September, Friday

    Time Temperature Precipitation Wind Pressure Humidity
    00:00 +8°C° 0 mm 2 mps 761 mmHg 47%
    01:00 +7°C° 0 mm 2 mps 761 mmHg 47%
    02:00 +7°C° 0 mm 2 mps 762 mmHg 47%
    03:00 +7°C° 0 mm 2 mps 762 mmHg 48%
    04:00 +6°C° 0 mm 2 mps 762 mmHg 49%
    05:00 +6°C° 0 mm 2 mps 762 mmHg 50%
    06:00 +7°C° 0 mm 2 mps 763 mmHg 50%
    07:00 +9°C° 0 mm 2 mps 763 mmHg 49%
    08:00 +10°C° 0 mm 2 mps 763 mmHg 48%
    09:00 +12°C° 0 mm 3 mps 763 mmHg 45%
    10:00 +14°C° 0 mm 3 mps 763 mmHg 42%
    11:00 +17°C° 0 mm 4 mps 763 mmHg 38%
    12:00 +17°C° 0 mm 4 mps 763 mmHg 38%
    13:00 +17°C° 0 mm 4 mps 763 mmHg 38%
    14:00 +17°C° 0 mm 5 mps 762 mmHg 38%
    15:00 +17°C° 0 mm 4 mps 762 mmHg 42%
    16:00 +15°C° 0 mm 4 mps 762 mmHg 47%
    17:00 +14°C° 0 mm 3 mps 762 mmHg 52%
    18:00 +13°C° 0 mm 3 mps 762 mmHg 50%
    19:00 +12°C° 0 mm 3 mps 763 mmHg 48%
    20:00 +12°C° 0 mm 2 mps 763 mmHg 45%
    21:00 +11°C° 0 mm 3 mps 763 mmHg 47%
    22:00 +11°C° 0 mm 4 mps 763 mmHg 50%
    23:00 +11°C° 0 mm 4 mps 763 mmHg 52%

    21 September, Saturday

    Time Temperature Precipitation Wind Pressure Humidity
    00:00 +10°C° 0 mm 4 mps 763 mmHg 52%
    01:00 +9°C° 0 mm 5 mps 763 mmHg 53%
    02:00 +9°C° 0 mm 5 mps 763 mmHg 54%
    03:00 +9°C° 0 mm 5 mps 763 mmHg 53%
    04:00 +9°C° 0 mm 6 mps 763 mmHg 52%
    05:00 +9°C° 0 mm 6 mps 763 mmHg 51%
    06:00 +10°C° 0 mm 6 mps 763 mmHg 52%
    07:00 +11°C° 0 mm 7 mps 763 mmHg 52%
    08:00 +12°C° 0 mm 7 mps 763 mmHg 53%
    09:00 +14°C° 0 mm 7 mps 763 mmHg 50%
    10:00 +16°C° 0 mm 7 mps 763 mmHg 48%
    11:00 +17°C° 0 mm 7 mps 763 mmHg 45%
    12:00 +18°C° 0 mm 7 mps 763 mmHg 46%
    13:00 +19°C° 0 mm 6 mps 762 mmHg 46%
    14:00 +20°C° 0 mm 6 mps 762 mmHg 47%
    15:00 +19°C° 0 mm 5 mps 762 mmHg 51%
    16:00 +19°C° 0 mm 4 mps 762 mmHg 56%
    17:00 +18°C° 0 mm 4 mps 762 mmHg 60%
    18:00 +16°C° 0 mm 3 mps 763 mmHg 61%
    19:00 +14°C° 0 mm 3 mps 764 mmHg 62%
    20:00 +12°C° 0 mm 3 mps 764 mmHg 63%
    21:00 +11°C° 0 mm 3 mps 765 mmHg 64%
    22:00 +10°C° 0 mm 4 mps 765 mmHg 66%
    23:00 +8°C° 0 mm 4 mps 765 mmHg 67%

    22 September, Sunday

    Time Temperature Precipitation Wind Pressure Humidity
    00:00 +8°C° 0 mm 4 mps 766 mmHg 71%
    01:00 +7°C° 0 mm 4 mps 766 mmHg 75%
    02:00 +7°C° 0 mm 4 mps 766 mmHg 78%
    03:00 +6°C° 0 mm 4 mps 767 mmHg 77%
    04:00 +7°C° 0 mm 3 mps 767 mmHg 76%
    05:00 +5°C° 0 mm 3 mps 767 mmHg 75%
    06:00 +8°C° 0 mm 3 mps 768 mmHg 72%
    07:00 +9°C° 0 mm 3 mps 768 mmHg 69%
    08:00 +11°C° 0 mm 3 mps 769 mmHg 66%
    09:00 +12°C° 0 mm 3 mps 769 mmHg 60%
    10:00 +14°C° 0 mm 3 mps 769 mmHg 55%
    11:00 +16°C° 0 mm 3 mps 769 mmHg 49%
    12:00 +15°C° 0 mm 4 mps 769 mmHg 50%
    13:00 +15°C° 0 mm 4 mps 769 mmHg 51%
    14:00 +17°C° 0 mm 4 mps 768 mmHg 52%
    15:00 +14°C° 0 mm 5 mps 768 mmHg 56%
    16:00 +13°C° 0 mm 5 mps 768 mmHg 59%
    17:00 +12°C° 0 mm 5 mps 768 mmHg 63%
    18:00 +10°C° 0 mm 6 mps 768 mmHg 64%
    19:00 +9°C° 0 mm 6 mps 768 mmHg 65%
    20:00 +8°C° 0 mm 6 mps 768 mmHg 66%
    21:00 +8°C° 0 mm 6 mps 768 mmHg 67%
    22:00 +8°C° 0 mm 6 mps 768 mmHg 68%
    23:00 +8°C° 0 mm 6 mps 768 mmHg 70%

    23 September, Monday

    Time Temperature Precipitation Wind Pressure Humidity
    00:00 +8°C° 0 mm 6 mps 768 mmHg 71%
    01:00 +8°C° 0 mm 6 mps 768 mmHg 72%
    02:00 +8°C° 0 mm 6 mps 768 mmHg 72%
    03:00 +8°C° 0 mm 5 mps 767 mmHg 73%
    04:00 +7°C° 0 mm 5 mps 767 mmHg 74%
    05:00 +7°C° 0 mm 5 mps 767 mmHg 75%
    06:00 +8°C° 0 mm 5 mps 767 mmHg 70%
    07:00 +9°C° 0 mm 5 mps 767 mmHg 65%
    08:00 +10°C° 0 mm 5 mps 768 mmHg 60%
    09:00 +12°C° 0 mm 4 mps 768 mmHg 57%
    10:00 +14°C° 0 mm 4 mps 767 mmHg 54%
    11:00 +15°C° 0 mm 4 mps 767 mmHg 51%
    12:00 +16°C° 0 mm 3 mps 767 mmHg 50%
    13:00 +17°C° 0 mm 3 mps 766 mmHg 49%
    14:00 +18°C° 0 mm 3 mps 765 mmHg 48%
    15:00 +17°C° 0 mm 3 mps 765 mmHg 52%
    16:00 +16°C° 0 mm 3 mps 765 mmHg 57%
    17:00 +16°C° 0 mm 3 mps 765 mmHg 62%
    18:00 +13°C° 0 mm 3 mps 765 mmHg 66%
    19:00 +12°C° 0 mm 3 mps 765 mmHg 71%
    20:00 +11°C° 0 mm 3 mps 766 mmHg 75%
    21:00 +12°C° 0 mm 2 mps 766 mmHg 78%
    22:00 +12°C° 0 mm 2 mps 766 mmHg 81%
    23:00 +12°C° 0 mm 2 mps 766 mmHg 84%
    Show more